Location: Asheville, NC
(35.6000°N, 82.5500°W)
Time: 22:23:07
(UTC-04:00)

KAITUO 1B - Pass Details

Date: 09 January 2018
Orbit: 500 x 519 km, 97.5° (Epoch: 20 July)

Event Time Altitude Azimuth Distance (km) Brightness Sun altitude
Rises 17:23:26 0° 141° (SE) 2,631 ? 1.2°
Reaches altitude 10° 17:25:46 10° 128° (SE) 1,747 ? 0.8°
Maximum altitude 17:28:54 25° 72° (ENE) 1,075 ? 0.2°
Drops below altitude 10° 17:32:02 10° 16° (NNE) 1,755 ? -0.3°
Sets 18:57:28 0° 202° (SSW) 2,679 ? -16.5°
